Location: Newark
(48.6461°N, 4.3644°W)
Time: 01:25:49
(UTC+00:00)

Transit 2A Rocket - All Passes

Search period start: 29 January 2020 00:00
Search period end: 08 February 2020 00:00
Orbit: 593 x 910 km, 66.7° (Epoch: 28 January)

Date Brightness Start Highest point End Pass type
(mag) Time Alt. Az. Time Alt. Az. Time Alt. Az.
29 Jan - 04:43:22 10° SSW 04:47:38 68° ESE 04:51:59 10° NE visible
29 Jan - 06:27:14 10° W 06:30:37 22° NW 06:34:06 10° NNE visible
29 Jan - 11:39:58 10° NNW 11:44:03 28° NE 11:48:25 10° E daylight
29 Jan - 13:22:07 10° NW 13:26:56 62° WSW 13:32:10 10° SSE daylight
30 Jan - 04:01:15 10° S 04:05:13 38° ESE 04:09:15 10° NE visible
30 Jan - 05:43:55 10° WSW 05:47:47 32° NW 05:51:47 10° NNE visible
30 Jan - 07:31:04 10° NNW 07:31:50 10° NNW 07:32:37 10° N daylight
30 Jan - 10:57:42 10° NNW 11:01:12 20° NE 11:04:53 10° E daylight
30 Jan - 12:39:33 10° NW 12:44:24 83° NE 12:49:43 10° SE daylight
30 Jan - 14:23:19 10° WNW 14:26:28 17° WSW 14:29:47 10° SSW daylight
31 Jan - 03:19:37 10° SSE 03:22:54 22° ESE 03:26:14 10° ENE visible
31 Jan - 05:00:54 10° SW 05:05:05 50° NW 05:09:24 10° NNE visible
31 Jan - 06:46:37 10° NW 06:48:45 13° NNW 06:50:55 10° N visible
31 Jan - 10:15:30 10° N 10:18:14 15° NNE 10:21:03 10° ENE daylight
31 Jan - 11:57:05 10° NNW 12:01:48 53° NE 12:06:57 10° SE daylight
31 Jan - 13:40:00 10° NW 13:44:10 28° WSW 13:48:39 10° S daylight
01 Feb - 02:38:59 10° SE 02:40:41 12° ESE 02:42:25 10° E night (unlit)
01 Feb - 04:18:11 10° SW 04:22:29 85° NW 04:26:55 10° NE visible
01 Feb - 06:02:47 10° WNW 06:05:45 18° NNW 06:08:48 10° NNE visible
01 Feb - 09:33:30 10° N 09:35:11 12° NNE 09:36:52 10° NE daylight
01 Feb - 11:14:41 10° NNW 11:19:06 35° NE 11:23:53 10° ESE daylight
01 Feb - 12:57:06 10° NW 13:01:47 45° WSW 13:06:52 10° S daylight
02 Feb - 03:35:49 10° SSW 03:40:00 55° ESE 03:44:18 10° NE visible
02 Feb - 05:19:16 10° W 05:22:51 25° NW 05:26:33 10° NNE visible
02 Feb - 10:32:23 10° NNW 10:36:19 25° NE 10:40:31 10° E daylight
02 Feb - 12:14:26 10° NW 12:19:19 73° WSW 12:24:39 10° SSE daylight
02 Feb - 13:59:19 10° W 14:01:10 12° WSW 14:03:05 10° SW daylight
03 Feb - 02:53:50 10° S 02:57:38 31° ESE 03:01:28 10° NE visible
03 Feb - 04:36:04 10° WSW 04:40:04 37° NW 04:44:13 10° NNE visible
03 Feb - 06:22:33 10° NW 06:23:59 11° NNW 06:25:27 10° N visible
03 Feb - 09:50:07 10° NNW 09:53:25 18° NNE 09:56:53 10° ENE daylight
03 Feb - 11:31:53 10° NNW 11:36:46 72° NE 11:42:05 10° SE daylight
03 Feb - 13:15:17 10° WNW 13:18:56 20° WSW 13:22:47 10° SSW daylight
04 Feb - 02:12:26 10° SSE 02:15:21 18° ESE 02:18:17 10° ENE night (unlit)
04 Feb - 03:53:09 10° SW 03:57:23 60° NW 04:01:47 10° NNE visible
04 Feb - 05:38:26 10° WNW 05:40:56 15° NNW 05:43:28 10° N visible
04 Feb - 09:07:58 10° N 09:10:25 14° NNE 09:12:57 10° ENE daylight
04 Feb - 10:49:27 10° NNW 10:54:07 46° NE 10:59:12 10° ESE daylight
04 Feb - 12:32:10 10° NW 12:36:36 33° WSW 12:41:23 10° S daylight
05 Feb - 03:10:33 10° SSW 03:14:50 80° ESE 03:19:16 10° NE visible
05 Feb - 04:54:44 10° W 04:57:57 20° NW 05:01:17 10° NNE visible
05 Feb - 08:26:03 10° N 08:27:20 11° NNE 08:28:38 10° NE daylight
05 Feb - 10:07:05 10° NNW 10:11:23 31° NE 10:16:02 10° ESE daylight
05 Feb - 11:49:22 10° NW 11:54:11 53° WSW 11:59:26 10° SSE daylight
06 Feb - 02:28:17 10° S 02:32:23 45° ESE 02:36:35 10° NE visible
06 Feb - 04:11:20 10° W 04:15:06 28° NW 04:19:00 10° NNE visible
06 Feb - 09:24:47 10° NNW 09:28:34 22° NE 09:32:35 10° E daylight
06 Feb - 11:06:44 10° NW 11:11:41 86° WSW 11:17:05 10° SSE daylight
06 Feb - 12:50:54 10° WNW 12:53:39 15° WSW 12:56:32 10° SW daylight
07 Feb - 01:46:29 10° SSE 01:50:02 26° ESE 01:53:40 10° ENE night (unlit)
07 Feb - 03:28:14 10° WSW 03:32:20 43° NW 03:36:38 10° NNE visible
07 Feb - 05:14:14 10° NW 05:16:09 12° NNW 05:18:05 10° N visible
07 Feb - 08:42:33 10° N 08:45:38 17° NNE 08:48:51 10° ENE daylight
07 Feb - 10:24:15 10° NNW 10:29:06 61° NE 10:34:25 10° SE daylight
07 Feb - 12:07:22 10° WNW 12:11:23 24° WSW 12:15:40 10° SSW daylight
